| time (UTC) | temp F | wind direction | speed MPH | gust MPH | rain 1hr in | rain 24hr in | rain mn in | humidity % | barometer mb |
| 20260502151914 | 51 | 111 | 0.0 | 1.0 | 0.00 | 0.00 | 0.04 | 77 | 988.0 |
| 20260502151402 | 51 | 111 | 0.0 | 1.0 | 0.00 | 0.00 | 0.04 | 76 | 988.0 |
| 20260502150903 | 51 | 111 | 0.0 | 1.0 | 0.00 | 0.00 | 0.04 | 76 | 988.0 |
| 20260502150402 | 50 | 110 | 0.0 | 1.0 | 0.00 | 0.00 | 0.04 | 77 | 987.0 |
| 20260502130403 | 49 | 147 | 1.0 | 1.0 | 0.00 | 0.00 | 0.04 | 85 | 988.0 |
| 20260502123403 | 46 | 132 | 0.0 | 0.0 | 0.00 | 0.00 | 0.04 | 91 | 988.0 |
| 20260502122903 | 46 | 132 | 0.0 | 0.0 | 0.00 | 0.00 | 0.04 | 91 | 988.0 |
| 20260502122404 | 46 | 131 | 0.0 | 0.0 | 0.00 | 0.00 | 0.04 | 91 | 988.0 |
| 20260502121902 | 46 | 131 | 0.0 | 0.0 | 0.00 | 0.00 | 0.04 | 91 | 988.0 |
| 20260502121402 | 46 | 132 | 0.0 | 0.0 | 0.00 | 0.00 | 0.04 | 91 | 988.0 |
| 20260502120902 | 46 | 132 | 0.0 | 0.0 | 0.00 | 0.00 | 0.04 | 91 | 988.0 |
| 20260502120403 | 46 | 131 | 0.0 | 1.0 | 0.00 | 0.00 | 0.04 | 93 | 988.0 |
| 20260502115902 | 46 | 132 | 0.0 | 0.0 | 0.00 | 0.00 | 0.04 | 93 | 988.0 |
| 20260502115403 | 46 | 132 | 0.0 | 1.0 | 0.00 | 0.00 | 0.04 | 93 | 988.0 |
| 20260502114902 | 46 | 132 | 0.0 | 0.0 | 0.05 | 0.00 | 0.04 | 93 | 988.0 |
| 20260502114403 | 46 | 132 | 0.0 | 0.0 | 0.05 | 0.00 | 0.04 | 93 | 988.0 |
| 20260502113905 | 46 | 132 | 0.0 | 0.0 | 0.00 | 0.00 | 0.03 | 93 | 988.0 |
| 20260502113402 | 45 | 132 | 0.0 | 0.0 | 0.00 | 0.00 | 0.03 | 93 | 988.0 |
| 20260502112902 | 45 | 128 | 0.0 | 0.0 | 0.00 | 0.00 | 0.03 | 93 | 988.0 |
| 20260502112403 | 46 | 128 | 0.0 | 0.0 | 0.00 | 0.00 | 0.03 | 93 | 988.0 |
| 20260502111903 | 46 | 128 | 0.0 | 1.0 | 0.00 | 0.00 | 0.03 | 93 | 988.0 |
| 20260502111403 | 46 | 129 | 0.0 | 1.0 | 0.00 | 0.00 | 0.03 | 93 | 988.0 |
| 20260502110904 | 46 | 129 | 0.0 | 0.0 | 0.07 | 0.00 | 0.03 | 94 | 988.0 |
| 20260502110402 | 45 | 129 | 0.0 | 1.0 | 0.07 | 0.00 | 0.03 | 94 | 988.0 |
| 20260502105902 | 45 | 130 | 0.0 | 0.0 | 0.00 | 0.00 | 0.02 | 93 | 988.0 |
| 20260502105402 | 45 | 130 | 0.0 | 0.0 | 0.05 | 0.00 | 0.02 | 93 | 988.0 |
| 20260502104902 | 45 | 130 | 0.0 | 0.0 | 0.05 | 0.00 | 0.02 | 93 | 988.0 |
| 20260502104403 | 45 | 130 | 0.0 | 0.0 | 0.00 | 0.00 | 0.01 | 93 | 988.0 |
| 20260502103902 | 45 | 130 | 0.0 | 0.0 | 0.00 | 0.00 | 0.01 | 93 | 988.0 |
| 20260502103402 | 45 | 130 | 0.0 | 1.0 | 0.00 | 0.00 | 0.01 | 93 | 988.0 |
| 20260502102902 | 45 | 130 | 0.0 | 0.0 | 0.00 | 0.00 | 0.01 | 93 | 988.0 |
| 20260502102402 | 45 | 130 | 0.0 | 1.0 | 0.07 | 0.00 | 0.01 | 93 | 987.0 |
| 20260502101902 | 45 | 130 | 1.0 | 1.0 | 0.07 | 0.00 | 0.01 | 93 | 987.0 |
| 20260502101402 | 45 | 130 | 1.0 | 1.0 | 0.00 | 0.00 | 0.00 | 93 | 988.0 |
| 20260502100903 | 45 | 129 | 0.0 | 0.0 | 0.00 | 0.00 | 0.00 | 93 | 987.0 |
| 20260502100402 | 45 | 130 | 0.0 | 0.0 | 0.00 | 0.00 | 0.00 | 93 | 987.0 |
| 20260502091402 | 45 | 129 | 0.0 | 1.0 | 0.00 | 0.00 | 0.00 | 92 | 987.0 |
| 20260502090902 | 45 | 129 | 0.0 | 0.0 | 0.00 | 0.00 | 0.00 | 92 | 987.0 |
| 20260502090403 | 45 | 129 | 0.0 | 0.0 | 0.00 | 0.00 | 0.00 | 92 | 987.0 |
| 20260502071403 | 46 | 162 | 0.0 | 1.0 | 0.00 | 0.00 | 0.00 | 80 | 987.0 |
| 20260502070902 | 47 | 162 | 0.0 | 1.0 | 0.00 | 0.00 | 0.00 | 81 | 987.0 |
| 20260502070402 | 47 | 162 | 1.0 | 1.0 | 0.00 | 0.00 | 0.00 | 79 | 987.0 |
| 20260502065902 | 47 | 162 | 1.0 | 1.0 | 0.00 | 0.00 | 0.00 | 78 | 987.0 |
| 20260502065402 | 47 | 162 | 1.0 | 1.0 | 0.00 | 0.00 | 0.00 | 77 | 987.0 |
| 20260502064902 | 47 | 162 | 1.0 | 1.0 | 0.00 | 0.00 | 0.00 | 77 | 987.0 |
| 20260502064402 | 47 | 162 | 0.0 | 0.0 | 0.00 | 0.00 | 0.00 | 74 | 987.0 |
| 20260502063902 | 47 | 162 | 0.0 | 0.0 | 0.00 | 0.00 | 0.00 | 72 | 988.0 |
| 20260502063402 | 47 | 162 | 0.0 | 0.0 | 0.00 | 0.00 | 0.00 | 73 | 988.0 |
| 20260502062902 | 47 | 162 | 0.0 | 0.0 | 0.00 | 0.00 | 0.00 | 73 | 987.0 |
| 20260502062402 | 47 | 162 | 0.0 | 1.0 | 0.00 | 0.00 | 0.00 | 72 | 988.0 |
| 20260502061902 | 47 | 162 | 1.0 | 1.0 | 0.00 | 0.00 | 0.00 | 73 | 988.0 |
| 20260502061402 | 47 | 161 | 1.0 | 1.0 | 0.00 | 0.00 | 0.00 | 74 | 988.0 |
| 20260502060902 | 47 | 160 | 0.0 | 0.0 | 0.00 | 0.00 | 0.00 | 73 | 987.0 |
| 20260502060403 | 47 | 160 | 0.0 | 0.0 | 0.00 | 0.00 | 0.00 | 73 | 987.0 |
| 20260502055903 | 47 | 161 | 0.0 | 1.0 | 0.00 | 0.00 | 0.00 | 72 | 988.0 |
| 20260502055402 | 47 | 161 | 0.0 | 1.0 | 0.00 | 0.00 | 0.00 | 70 | 988.0 |
| 20260502054908 | 47 | 161 | 0.0 | 0.0 | 0.00 | 0.00 | 0.00 | 71 | 988.0 |
| 20260502054403 | 47 | 161 | 0.0 | 0.0 | 0.00 | 0.00 | 0.00 | 72 | 987.0 |
| 20260502053902 | 47 | 161 | 0.0 | 0.0 | 0.00 | 0.00 | 0.00 | 71 | 988.0 |
| 20260502053404 | 47 | 161 | 0.0 | 0.0 | 0.00 | 0.00 | 0.00 | 72 | 988.0 |
| 20260502052903 | 47 | 161 | 0.0 | 0.0 | 0.00 | 0.00 | 0.00 | 70 | 988.0 |
| 20260502052402 | 47 | 161 | 0.0 | 0.0 | 0.00 | 0.00 | 0.00 | 70 | 988.0 |
| 20260502051903 | 47 | 161 | 0.0 | 0.0 | 0.00 | 0.00 | 0.00 | 71 | 988.0 |
| 20260502051402 | 47 | 161 | 0.0 | 0.0 | 0.00 | 0.00 | 0.00 | 71 | 988.0 |
| 20260502050902 | 47 | 161 | 0.0 | 0.0 | 0.00 | 0.00 | 0.00 | 71 | 988.0 |
| 20260502050402 | 47 | 161 | 0.0 | 0.0 | 0.00 | 0.00 | 0.00 | 71 | 987.0 |
| 20260502045902 | 47 | 161 | 0.0 | 0.0 | 0.00 | 0.00 | 0.00 | 71 | 988.0 |
| 20260502045403 | 47 | 161 | 0.0 | 0.0 | 0.00 | 0.00 | 0.00 | 69 | 988.0 |
| 20260502044902 | 47 | 161 | 0.0 | 0.0 | 0.00 | 0.00 | 0.00 | 70 | 987.0 |
| 20260502044402 | 47 | 161 | 0.0 | 0.0 | 0.00 | 0.00 | 0.00 | 70 | 988.0 |
| 20260502043902 | 47 | 161 | 0.0 | 0.0 | 0.00 | 0.00 | 0.00 | 69 | 988.0 |
| 20260502043402 | 47 | 161 | 0.0 | 0.0 | 0.00 | 0.00 | 0.00 | 68 | 988.0 |
| 20260502042902 | 47 | 161 | 0.0 | 0.0 | 0.00 | 0.00 | 0.00 | 68 | 988.0 |
| 20260502042402 | 47 | 161 | 0.0 | 0.0 | 0.00 | 0.00 | 0.00 | 68 | 988.0 |
| 20260502041902 | 47 | 161 | 0.0 | 0.0 | 0.00 | 0.00 | 0.00 | 67 | 988.0 |
| 20260502041402 | 47 | 161 | 0.0 | 0.0 | 0.00 | 0.00 | 0.00 | 67 | 988.0 |
| 20260502040902 | 47 | 161 | 0.0 | 0.0 | 0.00 | 0.00 | 0.00 | 68 | 988.0 |
| 20260502040403 | 47 | 161 | 0.0 | 0.0 | 0.00 | 0.00 | 0.00 | 68 | 988.0 |
| 20260502035902 | 47 | 161 | 0.0 | 0.0 | 0.00 | 0.00 | 0.00 | 67 | 987.0 |
| 20260502035402 | 47 | 161 | 0.0 | 0.0 | 0.00 | 0.00 | 0.00 | 68 | 988.0 |
| 20260502034902 | 47 | 161 | 0.0 | 0.0 | 0.00 | 0.00 | 0.00 | 68 | 988.0 |
| 20260502034402 | 47 | 161 | 0.0 | 0.0 | 0.00 | 0.00 | 0.00 | 68 | 988.0 |
| 20260502033903 | 47 | 161 | 0.0 | 0.0 | 0.00 | 0.00 | 0.00 | 65 | 988.0 |
| 20260502033402 | 47 | 161 | 0.0 | 0.0 | 0.00 | 0.00 | 0.00 | 68 | 988.0 |
| 20260502032902 | 47 | 161 | 0.0 | 0.0 | 0.00 | 0.00 | 0.00 | 65 | 988.0 |
| 20260502032402 | 47 | 161 | 1.0 | 1.0 | 0.00 | 0.00 | 0.00 | 66 | 988.0 |
| 20260502031903 | 47 | 161 | 0.0 | 0.0 | 0.00 | 0.00 | 0.00 | 63 | 988.0 |
| 20260502031403 | 47 | 161 | 1.0 | 1.0 | 0.00 | 0.00 | 0.00 | 64 | 988.0 |
| 20260502030902 | 47 | 161 | 0.0 | 1.0 | 0.00 | 0.00 | 0.00 | 62 | 988.0 |
| 20260502030402 | 47 | 161 | 1.0 | 1.0 | 0.00 | 0.00 | 0.00 | 60 | 988.0 |
| 20260502025903 | 47 | 161 | 0.0 | 0.0 | 0.00 | 0.00 | 0.00 | 59 | 988.0 |
| 20260502025402 | 47 | 161 | 0.0 | 0.0 | 0.00 | 0.00 | 0.00 | 61 | 988.0 |
| 20260502024903 | 47 | 161 | 0.0 | 0.0 | 0.00 | 0.00 | 0.00 | 62 | 988.0 |
| 20260502024405 | 47 | 161 | 0.0 | 0.0 | 0.00 | 0.00 | 0.00 | 62 | 988.0 |
| 20260502023903 | 47 | 161 | 0.0 | 1.0 | 0.00 | 0.00 | 0.00 | 61 | 988.0 |
| 20260502023403 | 48 | 161 | 0.0 | 0.0 | 0.00 | 0.00 | 0.00 | 61 | 988.0 |
| 20260502022903 | 48 | 161 | 0.0 | 0.0 | 0.00 | 0.00 | 0.00 | 64 | 988.0 |
| 20260502022402 | 48 | 161 | 1.0 | 1.0 | 0.00 | 0.00 | 0.00 | 61 | 988.0 |
| 20260502021903 | 48 | 161 | 0.0 | 0.0 | 0.00 | 0.00 | 0.00 | 59 | 988.0 |
| 20260502021402 | 48 | 161 | 1.0 | 1.0 | 0.00 | 0.00 | 0.00 | 58 | 988.0 |
| 20260502020902 | 48 | 161 | 1.0 | 1.0 | 0.00 | 0.00 | 0.00 | 58 | 988.0 |
| 20260502020403 | 48 | 160 | 2.0 | 2.0 | 0.00 | 0.00 | 0.00 | 58 | 988.0 |
| 20260502015903 | 47 | 160 | 1.0 | 1.0 | 0.00 | 0.00 | 0.00 | 57 | 988.0 |
| 20260502015402 | 47 | 160 | 0.0 | 0.0 | 0.00 | 0.00 | 0.00 | 60 | 988.0 |
| 20260502014903 | 48 | 160 | 0.0 | 0.0 | 0.00 | 0.00 | 0.00 | 58 | 987.0 |
| 20260502014403 | 48 | 160 | 0.0 | 0.0 | 0.00 | 0.00 | 0.00 | 55 | 987.0 |
| 20260502013903 | 48 | 160 | 1.0 | 0.0 | 0.00 | 0.00 | 0.00 | 55 | 988.0 |
| 20260502013402 | 48 | 160 | 0.0 | 0.0 | 0.00 | 0.00 | 0.00 | 56 | 987.0 |
| 20260502012902 | 47 | 160 | 0.0 | 0.0 | 0.00 | 0.00 | 0.00 | 56 | 988.0 |
| 20260502012402 | 47 | 160 | 0.0 | 0.0 | 0.00 | 0.00 | 0.00 | 57 | 987.0 |
| 20260502011903 | 47 | 160 | 0.0 | 0.0 | 0.00 | 0.00 | 0.00 | 56 | 987.0 |
| 20260502011402 | 47 | 160 | 0.0 | 0.0 | 0.00 | 0.00 | 0.00 | 55 | 987.0 |
| 20260502010903 | 47 | 160 | 0.0 | 0.0 | 0.00 | 0.00 | 0.00 | 54 | 987.0 |
| 20260502010403 | 48 | 160 | 0.0 | 0.0 | 0.00 | 0.00 | 0.00 | 57 | 987.0 |
| 20260502005902 | 48 | 160 | 0.0 | 0.0 | 0.00 | 0.00 | 0.00 | 57 | 987.0 |
| 20260502005403 | 48 | 160 | 0.0 | 0.0 | 0.00 | 0.00 | 0.00 | 52 | 987.0 |
| 20260502004903 | 49 | 160 | 0.0 | 0.0 | 0.00 | 0.00 | 0.00 | 51 | 987.0 |
| 20260502004402 | 49 | 160 | 0.0 | 0.0 | 0.00 | 0.00 | 0.00 | 53 | 987.0 |
| 20260502003902 | 49 | 160 | 0.0 | 0.0 | 0.00 | 0.00 | 0.00 | 50 | 987.0 |
| 20260502003403 | 50 | 160 | 0.0 | 0.0 | 0.00 | 0.00 | 0.00 | 50 | 987.0 |
| 20260502002902 | 50 | 160 | 1.0 | 1.0 | 0.00 | 0.00 | 0.00 | 54 | 987.0 |
| 20260502002402 | 50 | 160 | 0.0 | 0.0 | 0.00 | 0.00 | 0.00 | 50 | 987.0 |
| 20260502001902 | 51 | 160 | 1.0 | 1.0 | 0.00 | 0.00 | 0.00 | 52 | 987.0 |
| 20260502001402 | 51 | 160 | 0.0 | 1.0 | 0.00 | 0.00 | 0.00 | 48 | 986.0 |
| 20260502000902 | 51 | 160 | 1.0 | 1.0 | 0.00 | 0.00 | 0.00 | 48 | 987.0 |
| 20260502000402 | 51 | 160 | 1.0 | 1.0 | 0.00 | 0.00 | 0.00 | 49 | 987.0 |
| 20260501235902 | 51 | 160 | 1.0 | 1.0 | 0.00 | 0.00 | 0.00 | 48 | 986.0 |
| 20260501235402 | 52 | 159 | 1.0 | 1.0 | 0.00 | 0.00 | 0.00 | 48 | 986.0 |
| 20260501234902 | 52 | 158 | 0.0 | 1.0 | 0.00 | 0.00 | 0.00 | 49 | 986.0 |
| 20260501234403 | 52 | 158 | 1.0 | 1.0 | 0.00 | 0.00 | 0.00 | 47 | 986.0 |
| 20260501233903 | 53 | 158 | 1.0 | 1.0 | 0.00 | 0.00 | 0.00 | 44 | 986.0 |
| 20260501233403 | 53 | 158 | 1.0 | 1.0 | 0.00 | 0.00 | 0.00 | 45 | 986.0 |
| 20260501232902 | 54 | 158 | 0.0 | 1.0 | 0.00 | 0.00 | 0.00 | 37 | 986.0 |
| 20260501232402 | 55 | 158 | 1.0 | 2.0 | 0.00 | 0.00 | 0.00 | 40 | 986.0 |
| 20260501231902 | 55 | 127 | 1.0 | 2.0 | 0.00 | 0.00 | 0.00 | 35 | 986.0 |
| 20260501231403 | 56 | 124 | 0.0 | 0.0 | 0.00 | 0.00 | 0.00 | 35 | 986.0 |
| 20260501230902 | 56 | 125 | 1.0 | 1.0 | 0.00 | 0.00 | 0.00 | 37 | 986.0 |
| 20260501230403 | 56 | 117 | 0.0 | 2.0 | 0.00 | 0.00 | 0.00 | 35 | 986.0 |
| 20260501225902 | 57 | 117 | 1.0 | 1.0 | 0.00 | 0.00 | 0.00 | 35 | 986.0 |
| 20260501225402 | 58 | 117 | 0.0 | 1.0 | 0.00 | 0.00 | 0.00 | 30 | 986.0 |
| 20260501224902 | 57 | 99 | 1.0 | 2.0 | 0.00 | 0.00 | 0.00 | 31 | 986.0 |
| 20260501224402 | 58 | 76 | 0.0 | 1.0 | 0.00 | 0.00 | 0.00 | 31 | 986.0 |
| 20260501223903 | 58 | 69 | 2.0 | 3.0 | 0.00 | 0.00 | 0.00 | 30 | 986.0 |
| 20260501223402 | 58 | 74 | 1.0 | 1.0 | 0.00 | 0.00 | 0.00 | 31 | 986.0 |
| 20260501222902 | 58 | 131 | 1.0 | 1.0 | 0.00 | 0.00 | 0.00 | 29 | 985.0 |
| 20260501222403 | 58 | 158 | 3.0 | 4.0 | 0.00 | 0.00 | 0.00 | 31 | 986.0 |
| 20260501221902 | 59 | 157 | 1.0 | 1.0 | 0.00 | 0.00 | 0.00 | 33 | 985.0 |
| 20260501221404 | 59 | 97 | 0.0 | 2.0 | 0.00 | 0.00 | 0.00 | 28 | 986.0 |
| 20260501220903 | 59 | 72 | 0.0 | 2.0 | 0.00 | 0.00 | 0.00 | 29 | 986.0 |
| 20260501220403 | 59 | 141 | 0.0 | 1.0 | 0.00 | 0.00 | 0.00 | 31 | 986.0 |
| 20260501215903 | 59 | 163 | 3.0 | 4.0 | 0.00 | 0.00 | 0.00 | 30 | 985.0 |
| 20260501215403 | 59 | 120 | 1.0 | 2.0 | 0.00 | 0.00 | 0.00 | 28 | 985.0 |
| 20260501214902 | 59 | 136 | 2.0 | 2.0 | 0.00 | 0.00 | 0.00 | 29 | 985.0 |
| 20260501214402 | 60 | 159 | 2.0 | 3.0 | 0.00 | 0.00 | 0.00 | 28 | 986.0 |
| 20260501213903 | 59 | 150 | 3.0 | 4.0 | 0.00 | 0.00 | 0.00 | 29 | 985.0 |
| 20260501213402 | 59 | 59 | 2.0 | 2.0 | 0.00 | 0.00 | 0.00 | 30 | 985.0 |
| 20260501212903 | 60 | 133 | 1.0 | 1.0 | 0.00 | 0.00 | 0.00 | 30 | 985.0 |
| 20260501212402 | 60 | 77 | 1.0 | 7.0 | 0.00 | 0.00 | 0.00 | 28 | 985.0 |
| 20260501211902 | 60 | 241 | 4.0 | 4.0 | 0.00 | 0.00 | 0.00 | 28 | 985.0 |
| 20260501211403 | 60 | 234 | 1.0 | 2.0 | 0.00 | 0.00 | 0.00 | 29 | 985.0 |
| 20260501210903 | 60 | 142 | 0.0 | 2.0 | 0.00 | 0.00 | 0.00 | 28 | 985.0 |
| 20260501210405 | 60 | 251 | 3.0 | 8.0 | 0.00 | 0.00 | 0.00 | 28 | 985.0 |
| 20260501205902 | 60 | 33 | 4.0 | 6.0 | 0.00 | 0.00 | 0.00 | 29 | 985.0 |
| 20260501205403 | 61 | 163 | 1.0 | 1.0 | 0.00 | 0.00 | 0.00 | 32 | 985.0 |
| 20260501204902 | 60 | 153 | 1.0 | 4.0 | 0.00 | 0.00 | 0.00 | 30 | 985.0 |
| 20260501204402 | 61 | 304 | 2.0 | 4.0 | 0.00 | 0.00 | 0.00 | 29 | 985.0 |
| 20260501203902 | 60 | 146 | 1.0 | 3.0 | 0.00 | 0.00 | 0.00 | 28 | 985.0 |
| 20260501203404 | 61 | 148 | 2.0 | 3.0 | 0.00 | 0.00 | 0.00 | 27 | 985.0 |
| 20260501202903 | 60 | 149 | 1.0 | 2.0 | 0.00 | 0.00 | 0.00 | 31 | 985.0 |
| 20260501202402 | 60 | 155 | 2.0 | 6.0 | 0.00 | 0.00 | 0.00 | 32 | 985.0 |
| 20260501201902 | 60 | 266 | 4.0 | 4.0 | 0.00 | 0.00 | 0.00 | 28 | 985.0 |
| 20260501201402 | 60 | 304 | 2.0 | 6.0 | 0.00 | 0.00 | 0.00 | 29 | 985.0 |
| 20260501200903 | 60 | 95 | 0.0 | 4.0 | 0.00 | 0.00 | 0.00 | 28 | 985.0 |
| 20260501200402 | 60 | 83 | 0.0 | 3.0 | 0.00 | 0.00 | 0.00 | 28 | 985.0 |
| 20260501195902 | 60 | 85 | 2.0 | 4.0 | 0.00 | 0.00 | 0.00 | 27 | 985.0 |
| 20260501195402 | 60 | 65 | 2.0 | 6.0 | 0.00 | 0.00 | 0.00 | 28 | 985.0 |
| 20260501194902 | 60 | 55 | 3.0 | 3.0 | 0.00 | 0.00 | 0.00 | 31 | 985.0 |
| 20260501194403 | 60 | 104 | 2.0 | 4.0 | 0.00 | 0.00 | 0.00 | 28 | 985.0 |
| 20260501193902 | 61 | 103 | 1.0 | 8.0 | 0.00 | 0.00 | 0.00 | 28 | 985.0 |
| 20260501193402 | 62 | 264 | 2.0 | 3.0 | 0.00 | 0.00 | 0.00 | 27 | 985.0 |
| 20260501192902 | 61 | 78 | 1.0 | 2.0 | 0.00 | 0.00 | 0.00 | 28 | 985.0 |
| 20260501192403 | 60 | 161 | 0.0 | 4.0 | 0.00 | 0.00 | 0.00 | 29 | 985.0 |
| 20260501191904 | 60 | 35 | 2.0 | 9.0 | 0.00 | 0.00 | 0.00 | 30 | 985.0 |
| 20260501191405 | 61 | 15 | 3.0 | 6.0 | 0.00 | 0.00 | 0.00 | 28 | 985.0 |
| 20260501190903 | 60 | 39 | 2.0 | 6.0 | 0.00 | 0.00 | 0.00 | 32 | 985.0 |
| 20260501190402 | 60 | 115 | 4.0 | 4.0 | 0.00 | 0.00 | 0.00 | 31 | 985.0 |
| 20260501185902 | 60 | 69 | 2.0 | 4.0 | 0.00 | 0.00 | 0.00 | 32 | 985.0 |
| 20260501185403 | 60 | 166 | 2.0 | 6.0 | 0.00 | 0.00 | 0.00 | 29 | 986.0 |
| 20260501184902 | 61 | 170 | 7.0 | 8.0 | 0.00 | 0.00 | 0.00 | 29 | 985.0 |
| 20260501184402 | 60 | 109 | 1.0 | 4.0 | 0.00 | 0.00 | 0.00 | 32 | 986.0 |
| 20260501183905 | 59 | 64 | 1.0 | 3.0 | 0.00 | 0.00 | 0.00 | 32 | 985.0 |
| 20260501183403 | 60 | 48 | 2.0 | 3.0 | 0.00 | 0.00 | 0.00 | 33 | 986.0 |
| 20260501182503 | 60 | 37 | 2.0 | 4.0 | 0.00 | 0.00 | 0.00 | 33 | 986.0 |
| 20260501181902 | 60 | 92 | 0.0 | 2.0 | 0.00 | 0.00 | 0.00 | 30 | 986.0 |
| 20260501181403 | 60 | 185 | 4.0 | 6.0 | 0.00 | 0.00 | 0.00 | 31 | 986.0 |
| 20260501180903 | 59 | 155 | 6.0 | 8.0 | 0.00 | 0.00 | 0.00 | 33 | 986.0 |
| 20260501180402 | 59 | 123 | 2.0 | 4.0 | 0.00 | 0.00 | 0.00 | 33 | 986.0 |
| 20260501175905 | 58 | 229 | 1.0 | 3.0 | 0.00 | 0.00 | 0.00 | 35 | 986.0 |
| 20260501175402 | 59 | 71 | 4.0 | 7.0 | 0.00 | 0.00 | 0.00 | 31 | 986.0 |
| 20260501174902 | 58 | 217 | 2.0 | 3.0 | 0.00 | 0.00 | 0.00 | 33 | 986.0 |
| 20260501174403 | 58 | 136 | 3.0 | 3.0 | 0.00 | 0.00 | 0.00 | 33 | 986.0 |
| 20260501173902 | 57 | 116 | 2.0 | 3.0 | 0.00 | 0.00 | 0.00 | 36 | 986.0 |
| 20260501173402 | 58 | 44 | 4.0 | 6.0 | 0.00 | 0.00 | 0.00 | 35 | 986.0 |
| 20260501172902 | 58 | 110 | 1.0 | 10.0 | 0.00 | 0.00 | 0.00 | 37 | 986.0 |
| 20260501172403 | 57 | 57 | 3.0 | 4.0 | 0.00 | 0.00 | 0.00 | 35 | 986.0 |
| 20260501171902 | 57 | 47 | 3.0 | 3.0 | 0.00 | 0.00 | 0.00 | 36 | 986.0 |
| 20260501171403 | 57 | 81 | 2.0 | 3.0 | 0.00 | 0.00 | 0.00 | 41 | 986.0 |
| 20260501170903 | 57 | 55 | 2.0 | 3.0 | 0.00 | 0.00 | 0.00 | 37 | 986.0 |
| 20260501170404 | 57 | 104 | 0.0 | 2.0 | 0.00 | 0.00 | 0.00 | 38 | 986.0 |
| 20260501165902 | 57 | 88 | 2.0 | 6.0 | 0.00 | 0.00 | 0.00 | 36 | 986.0 |
| 20260501165403 | 57 | 131 | 2.0 | 6.0 | 0.00 | 0.00 | 0.00 | 35 | 986.0 |
| 20260501164903 | 57 | 157 | 3.0 | 4.0 | 0.00 | 0.00 | 0.00 | 38 | 986.0 |
| 20260501164403 | 57 | 141 | 1.0 | 7.0 | 0.00 | 0.00 | 0.00 | 38 | 986.0 |
| 20260501163902 | 56 | 173 | 1.0 | 2.0 | 0.00 | 0.00 | 0.00 | 41 | 986.0 |
| 20260501163402 | 56 | 61 | 3.0 | 7.0 | 0.00 | 0.00 | 0.00 | 42 | 986.0 |
| 20260501162902 | 56 | 49 | 3.0 | 8.0 | 0.00 | 0.00 | 0.00 | 41 | 986.0 |
| 20260501162402 | 55 | 101 | 2.0 | 3.0 | 0.00 | 0.00 | 0.00 | 43 | 986.0 |
| 20260501161903 | 56 | 72 | 2.0 | 2.0 | 0.00 | 0.00 | 0.00 | 44 | 986.0 |
| 20260501161403 | 56 | 151 | 4.0 | 6.0 | 0.00 | 0.00 | 0.00 | 44 | 986.0 |
| 20260501160902 | 55 | 105 | 2.0 | 3.0 | 0.00 | 0.00 | 0.00 | 44 | 986.0 |
| 20260501160404 | 55 | 57 | 2.0 | 3.0 | 0.00 | 0.00 | 0.00 | 47 | 986.0 |
| 20260501155904 | 54 | 99 | 0.0 | 2.0 | 0.00 | 0.00 | 0.00 | 46 | 986.0 |
| 20260501154904 | 54 | 178 | 1.0 | 3.0 | 0.00 | 0.00 | 0.00 | 47 | 987.0 |
| 20260501154403 | 54 | 70 | 2.0 | 3.0 | 0.00 | 0.00 | 0.00 | 48 | 987.0 |
| 20260501153902 | 53 | 121 | 2.0 | 4.0 | 0.00 | 0.00 | 0.00 | 45 | 987.0 |
| 20260501153403 | 53 | 346 | 1.0 | 6.0 | 0.00 | 0.00 | 0.00 | 50 | 987.0 |
| 20260501152903 | 54 | 108 | 1.0 | 2.0 | 0.00 | 0.00 | 0.00 | 48 | 987.0 |